Location: Marcé
(47.5801°N, 0.3280°W)
Time: 09:57:52
(UTC+01:00)

Tiros 1 despin weight - Pass Details

Date: 16 December 2021
Orbit: 592 x 641 km, 48.2° (Epoch: 25 January)

Event Time Altitude Azimuth Distance (km) Brightness Sun altitude
Rises 14:30:55 0° 285° (WNW) 2,849 ? 16.0°
Reaches altitude 10° 14:33:18 10° 279° (W) 1,937 ? 15.9°
Maximum altitude 14:37:30 44° 208° (SSW) 831 ? 15.6°
Drops below altitude 10° 14:41:40 10° 136° (SE) 1,916 ? 15.3°
Sets 14:44:01 0° 130° (SE) 2,814 ? 15.1°
